indice_tiempo,serie_original,serie_desestacionalizada,serie_tendencia_ciclo
2016-01-01,117.05119421077302,134.182965188571,133.430019906248
2016-02-01,118.90029357259574,132.642003160439,132.42456145831
2016-03-01,136.80623010580314,132.826356645864,131.242987829544
2016-04-01,132.0696490854989,131.953400685033,129.9506164976
2016-05-01,132.12673005161108,127.748070302562,128.671690403273
2016-06-01,124.9916505365282,124.584167989146,127.609599981961
2016-07-01,126.76147447449927,125.794489171112,126.906616989198
2016-08-01,133.7329827733621,125.861012038819,126.628751509543
2016-09-01,135.51789212141713,128.522115750347,126.728019165908
2016-10-01,133.34114128281072,126.683229615082,127.094135372111
2016-11-01,134.73703178156455,129.697333953066,127.589142448852
2016-12-01,124.08230099201045,128.630582039919,128.126273020775
2017-01-01,115.72788011075902,130.389431435138,128.699414444182
2017-02-01,109.43840116663539,127.895739918191,129.36258310178
2017-03-01,135.7397555654156,130.272683731371,130.195570385588
2017-04-01,127.06229310335894,129.224869303812,131.221103395405
2017-05-01,137.32629188497592,131.483618274528,132.36174888882
2017-06-01,134.50955603897785,133.239513083339,133.485901360454
2017-07-01,135.52441430007988,134.159068301676,134.40571318592
2017-08-01,143.01220222320006,134.535991616319,134.995380302508
2017-09-01,140.47537228449835,136.01615136912,135.213597153844
2017-10-01,142.91248117324935,134.866037076137,135.157102409445
2017-11-01,141.4719289560601,137.513893163857,134.908650338846
2017-12-01,126.4041221015147,134.658035659781,134.590594083018
2018-01-01,120.49879049928444,133.355979543014,134.208761696175
2018-02-01,116.47032626071217,134.449725860746,133.692980288376
2018-03-01,137.87384466026174,132.454667301122,132.908686950266
2018-04-01,132.09178628946967,132.302193137884,131.698586058768
2018-05-01,135.86546669164358,129.404444054434,129.994318353454
2018-06-01,123.7285406594831,124.739079537601,127.845547608885
2018-07-01,126.78055488105136,123.042512967644,125.417325596296
2018-08-01,134.230175656126,124.877959332126,122.982114801237
2018-09-01,122.79085973979822,120.838670118485,120.805876724558
2018-10-01,130.95087535592188,122.556029173559,119.106372962697
2018-11-01,121.7206486951649,117.822713467149,118.075574163203
2018-12-01,107.65050820288417,117.191671523558,117.763052323943
2019-01-01,107.03848029567479,119.191712916192,118.047872574122
2019-02-01,106.67393616491125,124.032058400498,118.736372798752
2019-03-01,118.4180246331019,114.483675044434,119.52519030717
2019-04-01,120.37257298567555,119.147858198181,120.150604667763
2019-05-01,126.47961261497039,118.887866379637,120.451318320667
2019-06-01,114.85187278421954,118.055574362916,120.363696337799
2019-07-01,124.59825669196819,119.347944890764,119.942500363573
2019-08-01,125.6565333781152,116.903979542565,119.250809713945
2019-09-01,116.66765831856677,112.854665602926,118.280792928121
2019-10-01,128.57781819763605,120.685867446162,116.90206991449
2019-11-01,116.4504456095095,116.151612863899,114.927622391535
2019-12-01,109.19722086584407,117.612260446551,112.257009944118
2020-01-01,106.96676586826234,118.265151906608,109.065610747856
2020-02-01,105.96615315429496,119.624771309165,105.785795420104
2020-03-01,98.85080173419037,92.7430670002522,103.070614022583
2020-04-01,80.3695831755266,80.6492388907475,101.557056811987
2020-05-01,93.39727057897797,88.5070285037462,101.615013033578
2020-06-01,107.68552518388505,106.138720071886,103.271453340325
2020-07-01,116.4396784123465,110.088732787982,106.182550840908
2020-08-01,116.62865541586976,110.134798382104,109.764252578274
2020-09-01,120.98271248501304,116.739849130106,113.433602010038
2020-10-01,124.93316804669958,118.007005378219,116.736719688179
2020-11-01,121.63746716478752,122.499389197832,119.47385244823
2020-12-01,115.3045653308336,122.950852425032,121.627332547192
2021-01-01,111.77271865397569,126.080933751809,123.318579913121
2021-02-01,107.75378473233181,124.368791966,124.669110583206
2021-03-01,131.64720668610988,123.823200425655,125.715184140349
2021-04-01,125.52085964453052,124.789781705539,126.432681941576
2021-05-01,121.68405865362826,117.0119257316,126.823750541586
2021-06-01,128.59837307531353,127.539651320864,126.941189648027
2021-07-01,131.05026656085312,125.236711495551,126.94278267954
2021-08-01,132.9987929128236,124.692387482172,127.052175698958
2021-09-01,132.80407745438578,128.193306014565,127.46097794816
2021-10-01,130.03163702788962,126.143380413484,128.299216887905
2021-11-01,133.5955966896043,133.044125913836,129.544096973087
2021-12-01,127.32258878895958,134.347130850032,131.022447683388
2022-01-01,110.45223892022884,125.057021936345,132.526017605118
2022-02-01,116.86553670599886,133.467112428813,133.825592744232
2022-03-01,136.06417977063688,127.691665639511,134.786544240158
2022-04-01,131.11057688323166,133.015087280304,135.327503096828
2022-05-01,135.95623391042966,129.806814797583,135.386912017112
2022-06-01,137.74171570716294,135.286617338446,134.963327771389
2022-07-01,137.83236809148204,134.084930189796,134.127951326501
2022-08-01,142.69539492532036,133.605542448481,133.043840264221
2022-09-01,137.89850280383965,131.641430684833,131.95979508753
2022-10-01,133.92179942776679,130.926047281722,131.127982787471
2022-11-01,134.14810212988814,134.809691984787,130.712874789491
2022-12-01,123.35551311628166,131.01287301984,130.781543196405
2023-01-01,117.42312394310964,130.591962014623,131.170019576859
2023-02-01,115.00375074732636,131.66439911074,131.598487788749
2023-03-01,140.7361105793318,131.266373345315,131.806061218871
2023-04-01,133.39162303166765,137.946176140449,131.668537200523
2023-05-01,137.36099174428043,130.598934051328,131.207124049491
2023-06-01,134.32148686806468,129.779661591189,130.515003964363
2023-07-01,132.26789477292985,128.800487754254,129.646468174164
2023-08-01,138.2810954582346,129.085057756694,128.585797166688
2023-09-01,133.32712165237467,129.165401992382,127.234965378181
2023-10-01,132.97956463951135,128.671631350425,125.512650432528
2023-11-01,127.60528147181061,127.722610967914,123.442166490257
2023-12-01,107.47834613812489,117.233565899228,121.185253434328
2024-01-01,103.11536760695765,115.742489316064,119.008253981355
